Regional Weather Roundup
Issued by NWS Wakefield, VA

Home | Current Version | Previous Version | Text Only | Print | Product List | Glossary On
Versions: 1 2 3 4 5 6 7 8 9 10 11 12 13 14 15 16 17 18 19 20 21 22 23 24 25 26 27 28 29 30 31 32 33 34 35 36 37 38 39 40 41 42 43 44 45 46 47 48 49 50
000
ASUS41 KAKQ 110515
RWRAKQ

REGIONAL WEATHER ROUNDUP
NATIONAL WEATHER SERVICE WAKEFIELD VA
1200 AM EST THU FEB 11 2016

Note: "fair" indicates few or no clouds below 12,000 feet with no
significant weather and/or obstructions to visibility. * = Denotes
station may not report precipitation (e.g., rain,snow,etc.),
thunder or fog.

VAZ042-051-052>054-056-110600-
NORTHERN VIRGINIA

CITY           SKY/WX    TMP DP  RH WIND       PRES   REMARKS
WASH NATIONAL  FAIR      26   8  46 W9G20     29.97R
DULLES         MOCLDY    24   7  48 W14       29.95R WCI  12
FORT BELVOIR   FAIR      25   6  43 W14G21    29.97R WCI  14
QUANTICO       FAIR      27   6  41 NW9       30.00R
FREDERICKSBRG* FAIR      25   9  50 CALM      29.98S
STAFFORD*      FAIR      25   5  42 W7        30.02R
WARRENTON      FAIR      25  11  54 W7        29.97R
CULPEPER*      FAIR      24   5  45 NW5       29.99R
MANASSAS*      FAIR      25  10  54 W6        29.98R
LEESBURG*      MOCLDY    25  14  63 NW16G22   29.95R WCI  12
WINCHESTER     FAIR      23   9  54 W17G25    29.94R WCI   9
FRONT ROYAL*   FAIR      23   5  46 W9G17     29.94S
LURAY*         FAIR      21   3  45 W8G18     29.96R
$$

VAZ048-049-060>072-079>083-110600-
CENTRAL AND SOUTH CENTRAL VIRGINIA

CITY           SKY/WX    TMP DP  RH WIND       PRES   REMARKS
RICHMOND       FAIR      26   4  38 NW16G23   30.00R WCI  14
CHESTERFIELD*  FAIR      27  -2  28 W15G21    30.02R WCI  15
PETERSBURG*    FAIR      27   1  32 W10       30.03R WCI  17
HANOVER        FAIR      25   4  40 W13G18    30.01R WCI  14
TAPPAHANNOCK*  FAIR      28  11  50 W7        29.99R
QUINTON*       FAIR      27   6  41 W12G18    29.99R WCI  16
CHARLOTTSVILLE FAIR      23   2  40 W6        29.98R
GORDONSVILLE*  FAIR      24   4  42 W6        29.98S
ORANGE*        FAIR      25   7  46 SW9       30.00R
LOUISA*        FAIR      25   5  42 W9        29.97R
BUMPASS*       FAIR      24   4  42 W7        29.99R
FARMVILLE*     FAIR      24   6  45 SW5       30.01S
CREWE*         FAIR      24   8  50 W6        30.02R
FORT PICKETT*  FAIR      23   7  50 W8        30.02R
CHASE CITY*    FAIR      24   2  40 W5        30.03S
CLARKSVILLE*   FAIR      25   7  46 NW5       30.04S
SOUTH HILL*    FAIR      24   5  44 NW7       30.09S
LAWRENCEVILLE* FAIR      25   7  47 NW7       30.03R
EMPORIA*       FAIR      27   9  46 W6        30.05S
$$

VAZ088>098-110600-
SOUTHEAST VIRGINIA

CITY           SKY/WX    TMP DP  RH WIND       PRES   REMARKS
NORFOLK        FAIR      30   9  41 W10G21    29.97R WCI  21
VIRGINIA BEACH FAIR      34   8  33 W18G29    29.96R WCI  23
NORFOLK NAVAL  FAIR      30  10  43 W18G30    29.98R WCI  18
WEST POINT*    CLOUDY    29   7  38 W9G20     30.00R
SALUDA*        CLOUDY    29  13  50 NW9G18    29.97S
NEWPORT NEWS   CLOUDY    30   8  39 NW13G21   29.98R WCI  20
LANGLEY AFB    MOCLDY    30   8  39 W14       29.96R WCI  19
FORT EUSTIS    CLOUDY    30   7  38 NW13G24   29.96R WCI  20
WILLIAMSBURG*  CLOUDY    30  10  43 NW13G20   29.99R WCI  20
HR EXEC AP*    FAIR      28   9  43 W9G17     30.00S
FRANKLIN*      FAIR      27   7  42 W13G18    30.03R WCI  16
US460-WAKEFLD  FAIR      28   6  39 W7        30.01R
$$

VAZ020-022-025-037-045-110600-
WEST CENTRAL AND SOUTHWEST VIRGINIA

CITY           SKY/WX    TMP DP  RH WIND       PRES   REMARKS
STAUNTON*      FAIR      23   8  53 W7        29.97S
WAYNESBORO*    CLOUDY    18   3  53 SW6       29.94R
HOT SPRINGS VA CLOUDY     7   3  82 W18G31    29.73S WCI -12
LYNCHBURG      MOCLDY    20   4  50 W7        30.02S
DANVILLE       FAIR      24   4  42 NW8       30.06R
SOUTH BOSTON*  MOCLDY    23   5  45 NW3       30.05S
MARTINSVILLE   FAIR      18   1  46 NW13      30.08R WCI   5
ROANOKE        MOCLDY    19   2  47 NW12G25   30.04R WCI   7
BLACKSBURG     CLOUDY    15   5  66 NW16G24   29.99S WCI  -1
DUBLIN*        CLOUDY    16   8  69 W17G25    30.00R WCI   0
MARION*        CLOUDY    14   5  67 W26G33    29.98S WCI  -6
HILLSVILLE*    FAIR      12   3  68 W24G35    29.91S WCI  -8
RICHLANDS*     LGT SNOW  12   5  73 W9        30.00F
WISE*          CLOUDY    16   3  57 W9        30.02S
ABINGDON*      MOCLDY    19   4  53 NW8       30.06S
$$

MDZ021>025-VAZ099-100-110600-
SOUTHERN MARYLAND AND THE DELMARVA PENINSULA

CITY           SKY/WX    TMP DP  RH WIND       PRES   REMARKS
PATUXENT RIVER CLOUDY    27   8  44 NW17G25   29.95R WCI  14
BAY BRIDGE APT   N/A     28  12  50 W16G25    29.94R WCI  17
LEONARDTOWN    CLOUDY    28   9  43 W8G16     29.97R
DOVER          CLOUDY    27  14  57 W13G22    29.88R WCI  16
GEORGETOWN     CLOUDY    27  15  61 W12G18    29.90R WCI  17
EASTON         PTCLDY    27  13  55 NW15G22   29.96R WCI  16
CAMBRIDGE      CLOUDY    28  12  50 W9G18     29.93R
SALISBURY      FLURRIES  26  18  71 W13G22    29.92R WCI  15
OCEAN CITY     FLURRIES  27  18  69 NW16G26   29.90R WCI  15
WALLOPS ISLAND CLOUDY    26  20  77 NW15      29.93R WCI  14
ACCOMACK*      CLOUDY    30  18  59 NW16G26   29.94R WCI  19
$$

NCZ012>017-030>032-110600-
NORTH CENTRAL AND EASTERN NORTH CAROLINA

CITY           SKY/WX    TMP DP  RH WIND       PRES   REMARKS
ROANOKE RAPIDS FAIR      28   9  43 NW8       30.05R
RALEIGH        MOCLDY    27   7  42 NW6       30.06R
ELIZABETH CITY PTCLDY    28  10  46 W18G32    30.00R WCI  15
AHOSKIE*       CLEAR     27   7  41 W5        30.04S
EDENTON*       PTCLDY    32  11  42 NW14G25   30.03R WCI  22
CURRITUCK*     MOCLDY    31  11  44 W12G18    29.99R WCI  22
KILL DEVIL HLS CLOUDY    33  15  48 W18G31    29.96R WCI  22
MANTEO         CLOUDY    33  17  51 NW20G25   29.99R WCI  21
CAPE HATTERAS  PTCLDY    37  19  48 NW18G36   29.99R
TARBORO*       FAIR      29  12  50 NW6       30.06R
GOLDSBORO      CLEAR     28   9  43 W7        30.06R
WASHINGTON     CLEAR     30   9  42 W8G16     30.04R
GREENVILLE     CLEAR     30  10  43 NW6       30.06S
NEW BERN       CLEAR     31  14  49 W7        30.07R
WILMINGTON     CLEAR     33  17  51 SW13      30.10R WCI  24
$$

VAZ048-110600-
ELSEWHERE

CITY           SKY/WX    TMP DP  RH WIND       PRES   REMARKS
HARRISBURG PA  PTCLDY    23  12  62 W17       29.87S WCI   9
BALTIMORE      MOCLDY    23  11  60 W13       29.92S WCI  11
ANNAPOLIS      MOCLDY    26  11  52 W9G20     29.93S
ANDREWS AFB    FAIR      25   6  45 NW20G35   29.93R WCI  11
PHILADELPHIA   CLOUDY    28  10  46 NW18G29   29.86R WCI  15
HENDERSON NC   PTCLDY    24   5  45 W5        30.04S
GREENSBORO     PTCLDY    23   5  46 NW8       30.04R
ROCKY MOUNT    CLEAR     28   9  44 W10       30.05R WCI  19
$$

VAZ100-110600-
MARINE

STATION/POSITION TIME  TEMP    WIND        PRES    WAVE   SWELL
                       AIR SEA DIR/SP/G            HT/PER HT/PER
                 (UTC) (F)     (DEG/KT/KT) (MB)    (FT/S) (FT/S)
BRANDYWINE LGT   0400   29     300/ 23/ 29 1011.2R
CAPE MAY NJ      0400   31 42  300/ 14/ 20 1010.8R
LEWES DE         0400   30 40  290/ 21/ 25 1011.6R
15NM E FENWICK I 0450   31 43              1010.9R   5/ 5
OCEAN-CITY-INLET 0400   31 42  310/ 15/ 21 1010.9R
WACHAPREAGUE VA  0400   30 43  290/  4/  8 1013.3R
GOOSES REEF MD   0400   29 39  310/ 16/ 23 1014.6R   2/ 3
COVE POINT MD    0400   26     330/ 13/ 24 1014.3R
SOLOMONS ISLAND  0400   28 41  310/ 12/ 17   N/A
BISHOPS HEAD MD  0400   28 38  310/ 13/ 20 1012.8R
PINEY POINT MD   0400          330/ 24/ 26   N/A
POTOMAC MD       0400   29 40  320/ 19/ 25 1013.2R   2/ 3
CAMBRIDGE MD     0400   28 39  300/ 16/ 24 1012.5R
LEWISETTA VA     0400   29 40  310/ 12/ 15 1014.2R
RAPPAHANNOCK LGT 0400          300/ 25/ 29 1014.0R
STINGRAY PT      0400   30 41  320/ 19/ 27 1014.3R   3/ 3
YORK RVR RNG VA  0400   31     340/ 20/ 24 1013.6R
YORKTOWN VA      0400   32 43  310/ 21/ 24 1014.2R
JAMESTOWN VA     0400   31 43  310/ 19/ 25   N/A     1/ 2
DOMINION TERM VA 0400   31     290/ 20/ 25 1014.2R
KIPTOPEKE VA     0400      42  340/ 21/ 26   N/A
CHES BAY BRIDGE  0400   32 42  260/ 22/ 29 1013.7R
CAPE HENRY VA    0400   31     270/ 16/ 22   N/A
CHESAPEAKE LGHT  0400   33     280/ 30/ 34 1013.7R
WILLOUBY STN VA  0400   31     280/ 23/ 26 1014.8R
CAPE HENRY BUOY  0428      44                N/A     5/ 5   2/13
1ST LANDING BUOY 0400      42                N/A     3/ 3
CAPE CHARLES BUO 0426      43                N/A     4/ 4   2/12
OFFSHORE WE BUOY 0421      46                N/A     7/ 5   2/13
64NM E OF VA BCH 0450   37 49  280/ 29/ 37 1011.7R   8/ 5   3/13
DUCK PIER NC     0400   34     290/ 22/ 30 1013.8R
44100 DUCK FRF   0424      47                N/A     5/13   2/13
44056 DUCK FRF   0411      44                N/A     3/14   2/14
OREGON INLET NC  0400   36 43  290/ 20/ 28 1014.1R
HATTERAS NC      0400   39 49  270/ 27/ 33 1014.6R
DIAMOND SHLS NC  0450   42 72  290/ 27/ 33 1014.8R   7/ 6   2/13
$$



USA.gov is the U.S. government's official web portal to all federal, state and local government web resources and services.